Location: Braunsdorf
(50.7357°N, 11.9136°E)
Time: 03:49:05
(UTC+00:00)

Daily predictions for brighter satellites

Satellite Brightness Start Highest point End
(mag) Time Altitude Azimuth Time Altitude Azimuth Time Altitude Azimuth
Cosmos 2333 Rocket 4.4 01:49:49 21° NE 01:49:49 21° NE 01:51:35 10° NE
Cosmos 2322 Rocket 4.5 02:14:37 17° N 02:14:37 17° N 02:16:09 10° NNE
Cosmos 2237 Rocket 3.8 02:21:11 31° ENE 02:21:11 31° ENE 02:24:25 10° NE
ATLAS 2AS CENTAUR R/B 4.1 02:23:04 33° NNW 02:23:29 33° N 02:30:20 10° NE
Cosmos 2219 Rocket 3.8 02:33:02 29° NNE 02:33:02 29° NNE 02:35:46 10° NNE
Cosmos 2360 Rocket 4.1 02:44:16 20° N 02:44:16 20° N 02:46:28 10° NNE
COSMOS 2428 4.1 02:46:26 33° NNE 02:46:26 33° NNE 02:49:35 10° NNE
NOSS 3-1 (C) 4.2 02:49:15 63° SSE 02:49:15 63° SSE 02:56:16 10° SE
Cosmos 1943 Rocket 3.7 02:49:41 22° N 02:52:11 32° NE 02:57:05 10° ESE
Lacrosse 5 3.0 02:59:20 40° ENE 02:59:20 40° ENE 03:02:49 10° E
SL-16 R/B 3.5 02:59:40 32° SE 03:00:54 36° ESE 03:06:02 10° NE
CZ-2C R/B 3.6 03:02:15 10° NNE 03:07:12 42° E 03:08:22 37° SE
Cosmos 1980 4.1 03:09:29 57° NNE 03:09:29 57° NNE 03:13:58 10° NNE
SL-16 R/B 4.4 03:11:43 14° NNW 03:11:43 14° NNW 03:13:53 10° N
Cosmos 2369 Rocket 3.6 03:08:02 14° NNW 03:12:28 36° NE 03:17:44 10° ESE
USA 215 3.3 03:12:54 10° ENE 03:19:22 64° NNW 03:19:59 61° NW
NOSS 0 Rocket 4.0 03:24:36 62° NNW 03:24:36 62° NNW 03:30:22 10° NNE
Meteor 2-1 Rocket 4.4 03:25:18 59° N 03:25:18 59° N 03:29:48 10° N
CZ-4C R/B 2.2 03:29:40 67° NNW 03:29:40 67° NNW 03:35:43 10° NE
Cosmos 2333 Rocket 3.4 03:31:49 29° NNW 03:31:49 29° NNW 03:35:42 10° NNE
USA 229 DEB 4.2 03:35:49 46° SSW 03:35:49 46° SSW 03:41:50 10° SSE
USA 229 4.1 03:35:52 46° SSW 03:35:52 46° SSW 03:41:56 10° SSE
ALOS 4.4 03:36:55 10° NE 03:40:49 26° E 03:44:42 10° SSE
CZ-4B R/B 4.2 03:37:35 10° NNE 03:41:02 34° E 03:42:15 27° SE
NOSS 3-1 (A) 4.0 03:39:16 46° WNW 03:41:39 65° SW 03:50:04 10° SSE
ATLAS CENTAUR R/B 1.8 03:43:09 65° SE 03:43:17 66° SE 03:47:43 10° NE
ADEOS II 4.3 03:40:11 10° NNW 03:41:03 13° NNW 03:41:03 13° NNW
H-2A R/B 3.4 03:41:22 10° NNE 03:45:37 50° E 03:48:34 19° S
MSX 3.8 03:45:25 10° N 03:51:04 60° WNW 03:51:32 58° W
Cosmos 1934 Rocket 3.9 03:45:26 10° NNW 03:51:37 61° W 03:57:50 10° S
IDEFIX/ARIANE 42P 3.5 03:46:55 10° N 03:50:26 34° NNW 03:50:26 34° NNW
Cosmos 1992 Rocket 3.9 03:55:38 61° SW 03:55:38 61° SW 04:00:27 10° S
STARLINK-1148 4.4 03:57:08 37° ENE 03:57:08 37° ENE 03:59:14 10° ENE
Cosmos 2322 Rocket 4.4 03:56:25 11° NNW 03:57:28 11° NNW 03:59:08 10° N
STARLINK-1158 4.3 03:59:03 39° ENE 03:59:03 39° ENE 04:01:14 10° ENE
Cosmos 1356 Rocket 3.4 03:58:21 59° SSE 03:59:01 75° E 04:03:07 10° NNE
Cosmos 2237 Rocket 2.6 04:03:02 41° NW 04:03:14 41° NW 04:08:33 10° NNE
Cosmos 2251 Rocket 3.4 04:01:11 38° SSW 04:03:17 88° WNW 04:08:38 10° NNE
Cosmos 1455 4.1 04:06:38 19° N 04:06:38 19° N 04:07:54 10° N
Aureole 2 Rocket 3.8 04:05:17 27° NNE 04:06:01 32° ENE 04:08:49 10° SE
BREEZE M DEB (TANK) 2.6 04:06:13 77° S 04:06:14 77° S 04:12:06 10° E
COSMO-SKYMED 1 2.8 04:02:04 10° SSE 04:06:22 69° ENE 04:10:42 10° N
Meteor 1-31 Rocket 2.6 04:04:00 10° NNE 04:07:50 88° E 04:08:26 62° S
Spot 2 3.9 04:05:04 10° N 04:08:48 60° NW 04:08:48 60° NW
Cosmos 921 Rocket 4.2 04:05:25 10° N 04:09:44 44° ENE 04:13:57 10° SE
Cosmos 1605 Rocket 3.9 04:05:38 10° NNW 04:11:50 64° W 04:17:54 10° S
PAYLOAD A 4.0 04:07:16 10° N 04:11:56 51° WNW 04:12:27 48° W
NOSS 2-1 (C) 2.9 04:12:26 86° SW 04:12:32 89° N 04:16:23 10° NE
Cosmos 1408 Rocket 4.3 04:10:36 10° NNW 04:16:25 34° SSW 04:19:06 10° S
Cosmos 2219 Rocket 3.7 04:14:45 20° NW 04:15:04 20° NW 04:19:12 10° NNE
NOSS 2-1 (D) 2.8 04:16:24 78° W 04:16:34 82° NW 04:20:26 10° NE
ATLAS 2AS CENTAUR R/B 4.1 04:10:29 14° NW 04:16:37 36° NNE 04:23:23 10° E
GEOS 3 Rocket 3.7 04:12:44 10° NE 04:18:04 82° SE 04:21:26 24° SW
CZ-4B R/B 3.9 04:14:33 10° N 04:18:49 75° WNW 04:21:31 23° SSW
Cosmos 2221 2.8 04:17:46 10° S 04:21:59 67° E 04:26:16 10° NNE
Cosmos 1153 Rocket 4.3 04:17:46 10° NNW 04:23:57 77° W 04:30:04 10° S
ADEOS 4.0 04:19:14 10° N 04:24:04 39° WNW 04:25:01 36° W
STARLINK-1170 3.4 04:27:03 43° NNE 04:27:03 43° NNE 04:29:13 10° ENE
Cosmos 1869 4.3 04:23:14 10° SSE 04:27:05 47° E 04:30:55 10° NNE
Cosmos-2242 4.4 04:28:38 23° NW 04:28:38 23° NW 04:30:56 10° N
Cosmos 2360 Rocket 4.3 04:26:01 10° NW 04:27:36 11° NNW 04:29:22 10° N
COSMOS 2428 4.3 04:28:26 18° NW 04:29:21 18° NNW 04:33:19 10° NNE
Meteor 2-10 Rocket 3.8 04:27:19 29° SW 04:29:39 46° WNW 04:34:40 10° N
SKYMED 3 4.4 04:26:08 10° S 04:30:27 71° WSW 04:34:50 10° NNW
Cosmos 1943 Rocket 2.2 04:31:14 12° NW 04:36:14 56° WSW 04:41:36 10° S
Cosmos 1238 Rocket 4.4 04:31:54 10° N 04:38:16 62° ENE 04:43:47 10° SSE
Cosmos 1727 Rocket 3.9 04:34:12 10° SSW 04:40:23 75° WNW 04:46:36 10° N
Lacrosse 5 2.1 04:38:34 29° WNW 04:40:49 51° SW 04:45:42 10° SSE
STARLINK-1162 3.2 04:40:54 43° NW 04:41:34 54° N 04:44:39 10° ENE
STARLINK-1157 3.2 04:42:33 41° NW 04:43:17 54° N 04:46:23 10° ENE
ADEOS Rocket 3.6 04:37:44 10° SSE 04:43:55 69° ENE 04:50:53 10° NNW
Cosmos 482 Debris 4.0 04:44:58 31° SE 04:44:58 31° SE 04:46:07 10° ESE
SL-16 R/B 2.5 04:41:35 23° WSW 04:44:54 48° NW 04:50:25 10° NNE
STARLINK-1159 3.2 04:44:29 39° NW 04:45:17 54° N 04:48:23 10° ENE
CZ-2C R/B 3.2 04:40:40 10° N 04:45:19 34° WNW 04:47:46 22° WSW
STARLINK-1171 3.2 04:46:21 38° WNW 04:47:14 54° N 04:50:20 10° ENE
STARLINK-1179 2.9 04:47:55 42° NNW 04:48:16 46° N 04:50:46 10° ENE
Cosmos 2173 Rocket 4.0 04:42:02 10° N 04:48:24 84° W 04:54:38 10° S
STARLINK-1176 2.9 04:48:29 42° NNW 04:48:52 46° N 04:51:22 10° ENE
STARLINK-1155 3.2 04:48:08 36° WNW 04:49:06 54° N 04:52:12 10° ENE
STARLINK-1153 3.1 04:49:50 36° NW 04:50:39 51° N 04:53:32 10° ENE
STARLINK-1180 3.1 04:50:03 36° NW 04:50:53 51° N 04:53:47 10° ENE
STARLINK-1166 3.2 04:50:07 34° WNW 04:51:10 54° N 04:54:16 10° ENE
STARLINK-1174 3.1 04:50:31 36° NW 04:51:22 51° N 04:54:14 10° ENE
STARLINK-1139 3.1 04:50:44 36° NW 04:51:35 51° N 04:54:28 10° ENE
STARLINK-1133 3.1 04:50:55 35° NW 04:51:47 51° N 04:54:39 10° ENE
STARLINK-1151 3.1 04:51:10 35° NW 04:52:03 51° N 04:54:55 10° ENE
STARLINK-1160 3.1 04:51:48 35° NW 04:52:42 51° N 04:55:35 10° ENE
STARLINK-1161 3.1 04:52:01 34° NW 04:52:56 51° N 04:55:48 10° ENE
STARLINK-1165 3.2 04:51:54 32° WNW 04:53:02 54° N 04:56:08 10° ENE
STARLINK-1145 3.1 04:52:14 34° WNW 04:53:10 51° N 04:56:02 10° ENE
Cosmos 1805 Rocket 3.5 04:48:51 10° N 04:53:13 88° E 04:57:33 10° S
STARLINK-1172 3.1 04:52:25 34° WNW 04:53:21 51° N 04:56:15 10° ENE
STARLINK-1182 3.1 04:52:54 34° WNW 04:53:51 51° N 04:56:43 10° ENE
Cosmos 407 Rocket 3.8 04:48:42 10° SSW 04:54:00 73° ESE 04:59:17 10° NNE
STARLINK-1164 3.1 04:53:06 33° WNW 04:54:04 51° N 04:56:56 10° ENE
STARLINK-1168 3.1 04:53:18 33° WNW 04:54:16 51° N 04:57:09 10° ENE
TELKOM 3 2.7 04:54:11 59° SW 04:54:25 68° S 04:56:31 10° E
SKYMED 2 3.9 04:50:27 10° S 04:54:34 42° W 04:58:43 10° NNW
STARLINK-1183 3.1 04:53:58 33° WNW 04:54:57 51° N 04:57:50 10° ENE
STARLINK-1169 3.2 04:53:45 31° WNW 04:54:57 53° N 04:58:04 10° ENE
STARLINK-1181 3.1 04:54:10 32° WNW 04:55:10 51° N 04:58:02 10° ENE
FENGYUN 3A 3.6 04:50:22 10° NNE 04:55:50 80° WNW 05:01:16 10° SSW
STARLINK-1196 3.1 04:54:49 32° WNW 04:55:51 51° N 04:58:45 10° ENE
STARLINK-1186 3.1 04:55:16 31° WNW 04:56:19 51° N 04:59:11 10° ENE
STARLINK-1185 3.1 04:55:29 31° WNW 04:56:32 51° N 04:59:25 10° ENE
Cosmos 2369 Rocket 2.4 04:51:12 10° NW 04:56:44 51° WSW 05:02:13 10° S
STARLINK-1175 3.1 04:55:42 31° WNW 04:56:46 51° N 04:59:39 10° ENE
STARLINK-1178 3.3 04:55:35 29° WNW 04:56:53 53° N 04:59:59 10° ENE
STARLINK-1147 3.1 04:55:54 31° WNW 04:56:59 51° N 04:59:51 10° ENE
Cosmos 1862 3.8 04:53:13 10° N 04:57:11 63° ENE 05:01:06 10° SSE
STARLINK-1146 3.1 04:56:06 31° WNW 04:57:12 51° N 05:00:05 10° ENE
STARLINK-1152 3.1 04:56:20 31° WNW 04:57:26 51° N 05:00:18 10° ENE
STARLINK-1195 3.1 04:56:33 30° WNW 04:57:39 51° N 05:00:32 10° ENE
STARLINK-1137 3.1 04:56:47 30° WNW 04:57:54 51° N 05:00:47 10° ENE
STARLINK-1142 3.1 04:57:00 30° WNW 04:58:08 51° N 05:01:00 10° ENE
STARLINK-1127 3.1 04:57:12 30° WNW 04:58:20 51° N 05:01:13 10° ENE
STARLINK-1184 3.1 04:57:26 30° WNW 04:58:34 51° N 05:01:27 10° ENE
STARLINK-1120 3.3 04:57:20 28° WNW 04:58:43 53° N 05:01:49 10° ENE
STARLINK-1193 3.1 04:57:39 30° WNW 04:58:48 51° N 05:01:40 10° ENE
STARLINK-1194 3.1 04:57:51 29° WNW 04:59:00 51° N 05:01:53 10° ENE
Sich 1 3.1 04:56:12 10° N 05:00:30 78° E 05:04:47 10° SSE
Cosmos 2100 Rocket 3.9 04:54:23 10° NNW 05:00:35 66° W 05:06:41 10° S
STARLINK-1131 3.3 04:59:19 27° WNW 05:00:46 53° N 05:03:52 10° E
Cosmos 1603 3.8 04:55:09 10° SSW 05:00:52 83° ESE 05:06:35 10° NNE
Cosmos 1500 Rocket 4.0 04:56:46 10° NNW 05:00:55 39° W 05:05:00 10° SSW
Cosmos 1140 Rocket 4.1 04:55:48 10° S 05:00:58 62° ESE 05:06:10 10° NNE
Okean O Rocket 2.1 04:56:57 10° NNE 05:01:20 63° ESE 05:05:38 10° S
CZ-4B DEB 4.2 04:55:50 10° NNE 05:01:23 90° S 05:06:51 10° SSW
Cosmos 1238 4.0 04:58:39 10° SSW 05:01:40 70° W 05:04:47 10° N
USA 215 3.7 04:55:38 10° ENE 05:01:56 52° N 05:07:21 14° WNW
STARLINK-1190 3.3 05:01:09 25° WNW 05:02:41 53° N 05:05:48 10° E
NOSS 2-1 (E) 3.7 05:01:57 23° W 05:03:44 40° NW 05:07:37 10° NE
Meteor 2-3 Rocket 4.3 04:59:38 10° NNW 05:04:46 35° W 05:09:55 10° SSW
Cosmos 2263 4.3 05:00:50 10° NW 05:06:26 57° WSW 05:11:57 10° S
Cosmos 1943 3.4 05:02:28 10° SSW 05:08:03 75° ESE 05:13:43 10° NNE
Cosmos 2061 Rocket 4.0 05:02:07 10° N 05:08:27 84° W 05:14:41 10° S
Meteor PRIRODA 4.3 05:06:01 10° N 05:09:22 32° WNW 05:12:41 10° SW
Cosmos 1743 Rocket 4.4 05:08:35 10° NNW 05:12:16 28° W 05:15:56 10° SSW
CZ-4B R/B 3.4 05:07:43 10° NNE 05:13:06 75° ESE 05:18:23 10° S
Cosmos 1484 Rocket 3.7 05:11:10 10° N 05:14:35 29° WNW 05:18:01 10° SW
Cosmos 1000 Rocket 4.4 05:09:01 10° SSW 05:15:10 75° W 05:21:26 10° N
Cosmos 1190 Rocket 4.0 05:10:40 10° SSW 05:15:57 89° WNW 05:21:18 10° NNE
CZ-4B R/B 3.9 05:13:01 10° N 05:16:00 23° WNW 05:18:22 13° WSW
Cosmos 2333 Rocket 4.2 05:14:31 10° NW 05:16:49 12° NNW 05:19:07 10° N
ALOS 2.5 05:13:59 10° N 05:18:27 46° WNW 05:22:54 10° SW
CZ-4C R/B 3.5 05:14:51 14° WNW 05:19:05 30° NNW 05:24:58 10° NE
STARLINK-1149 2.9 05:17:26 19° WNW 05:19:07 50° N 05:21:42 10° E
Cosmos 1459 Rocket 4.1 05:13:56 10° NNW 05:19:52 52° W 05:25:52 10° SSW
STARLINK-1129 3.3 05:17:57 17° WNW 05:20:15 55° N 05:23:23 10° E
H-2A R/B 3.7 05:17:26 10° N 05:20:51 23° WNW 05:24:19 10° WSW
STARLINK-1134 3.3 05:19:36 16° WNW 05:21:58 55° N 05:25:07 10° E
STARLINK-1132 2.9 05:20:13 17° WNW 05:22:04 51° N 05:24:43 10° E
ATLAS CENTAUR R/B 2.6 05:19:22 14° W 05:22:33 29° NW 05:26:24 10° NNE
Cosmos 1656 Rocket 3.7 05:17:40 10° NW 05:23:17 64° WSW 05:28:54 10° SSE
STARLINK-1135 3.3 05:21:47 15° WNW 05:24:14 56° N 05:27:24 10° E
Meteor 2-2 Rocket 4.4 05:18:24 10° SSW 05:24:20 60° WNW 05:30:20 10° N
STARLINK-1150 2.9 05:23:03 16° WNW 05:25:01 52° N 05:27:40 10° E
Cosmos 1725 Rocket 4.0 05:19:44 10° NNW 05:26:01 80° W 05:32:17 10° S
STARLINK-1163 2.9 05:24:05 15° WNW 05:26:06 52° N 05:28:46 10° E
Cosmos 1346 Rocket 4.1 05:22:29 10° N 05:26:16 43° ENE 05:29:59 10° SE
STARLINK-1141 3.3 05:23:49 15° WNW 05:26:21 56° N 05:29:31 10° E
PSLV R/B 4.5 05:23:33 10° N 05:26:49 30° WNW 05:30:08 10° SW
STARLINK-1173 2.9 05:25:53 15° WNW 05:27:58 53° N 05:30:39 10° E
STARLINK-1140 3.3 05:25:39 14° WNW 05:28:17 56° N 05:31:27 10° E
STARLINK-1177 2.9 05:26:26 15° WNW 05:28:34 53° N 05:31:15 10° E
Cosmos 614 Rocket 4.1 05:23:33 10° SW 05:28:38 57° WNW 05:33:47 10° NNE
STARLINK-1118 4.3 05:27:26 10° SSW 05:29:43 28° SSE 05:32:03 10° E
STARLINK-1167 2.9 05:27:50 14° WNW 05:30:01 54° N 05:32:43 10° E
STARLINK-1156 3.3 05:27:35 13° WNW 05:30:17 57° N 05:33:27 10° E
Cosmos 2123 Rocket 4.1 05:25:24 10° S 05:31:44 88° W 05:38:05 10° N
STARLINK-1148 3.3 05:29:31 13° WNW 05:32:19 57° N 05:35:29 10° E
Cosmos 676 Rocket 4.2 05:27:40 10° SSW 05:32:59 81° ESE 05:38:22 10° NNE
Cosmos 1802 Rocket 4.2 05:26:57 10° NNW 05:33:09 51° W 05:39:20 10° SSW
Cosmos 1633 3.4 05:30:24 10° NNW 05:33:36 29° W 05:36:46 10° SSW
PAYLOAD B 4.3 05:28:14 10° N 05:33:44 61° WNW 05:39:12 10° SSW
STARLINK-1158 3.2 05:31:27 12° WNW 05:34:19 58° N 05:37:30 10° E
Cosmos 1151 Rocket 4.0 05:30:22 10° S 05:34:33 53° E 05:38:47 10° NNE
STARLINK-1136 2.9 05:32:38 12° WNW 05:35:01 55° N 05:37:40 10° E
CZ-2C R/B 4.4 05:31:53 10° SSE 05:36:12 56° ENE 05:40:34 10° N
Aureole 2 Rocket 3.8 05:37:45 10° WNW 05:39:43 16° WSW 05:41:43 10° SW
NOAA 6 4.1 05:36:01 10° N 05:41:07 59° WNW 05:46:11 10° SSW
COSMO-SKYMED 1 4.1 05:40:23 10° SW 05:43:00 16° W 05:45:38 10° NW
Cosmos 1315 Rocket 4.2 05:43:16 10° SSE 05:47:02 45° E 05:50:49 10° NNE
Cosmos 921 Rocket 4.2 05:44:11 10° NW 05:47:47 24° W 05:51:17 10° SSW
Cosmos 1340 2.6 05:44:50 10° NNW 05:48:38 87° WSW 05:52:23 10° S
Cosmos 2237 Rocket 4.0 05:46:05 10° NW 05:48:56 14° NNW 05:51:47 10° N
Cosmos 1633 Rocket 3.1 05:44:55 10° NNW 05:49:13 58° W 05:53:30 10° S
Okean-O 4.3 05:45:11 10° NNE 05:49:24 41° E 05:53:36 10° S
Cosmos 1666 Rocket 3.8 05:45:36 10° NNW 05:49:55 48° W 05:54:10 10° SSW
Cosmos 1933 Rocket 4.2 05:46:08 10° N 05:50:29 62° ENE 05:54:46 10° SSE
